Date String (YYYY-MM-DD hh:mm:ss) UTC,Instrument flags,Ambient pressure (hPa),Sample flow (lpm),Bypass flow (lpm),Sample temperature (°C),Ambient temperature (°C),ASC tube jacket temperature (°C),LED temperature (°C),Box temperature (°C),Sample RH (%),Span deviation,Mass concentration (μg/m³),Mass concentration (μg/m³),Mass concentration (μg/m³)
DateTimeUTC,F1_M11,P_M11,Q1_M11,Q2_M11,T1_M11,T2_M11,T3_M11,T4_M11,T5_M11,U1_M11,ZSPAN_M11,X2_M11,X0_M11,X1_M11
2022-03-08 09:00:00,,0824.1,5.02,0.00,22.3,21.9,00.0,31.3,24.0,07.6,0001.6,0005.94,0008.94,0005.56
2022-03-08 09:01:00,,0824.0,4.99,0.00,22.3,21.8,00.0,31.3,23.9,07.7,0001.1,0005.87,0009.20,0005.50
2022-03-08 09:02:00,,0824.1,5.00,0.00,22.2,21.6,00.0,31.3,23.9,07.7,0001.2,0005.84,0009.17,0005.47
2022-03-08 09:03:00,,0824.1,4.99,0.00,22.2,21.5,00.0,31.3,23.9,07.7,0001.7,0005.78,0009.07,0005.43
2022-03-08 09:04:00,,0824.1,5.00,0.00,22.2,21.5,00.0,31.3,23.8,07.7,0002.0,0005.71,0008.93,0005.38
2022-03-08 09:05:00,,0824.1,5.00,0.00,22.1,21.4,00.0,31.2,23.8,07.6,0001.6,0005.63,0008.83,0005.29
2022-03-08 09:06:00,,0824.1,5.01,0.00,22.1,21.2,00.0,31.2,23.8,07.5,0000.9,0005.50,0008.74,0005.17
2022-03-08 09:07:00,,0824.1,4.99,0.00,22.1,21.2,00.0,31.2,23.7,07.6,0000.6,0005.32,0008.60,0005.02
2022-03-08 09:08:00,,0824.1,5.00,0.00,22.0,21.2,00.0,31.2,23.7,07.6,0001.1,0005.17,0008.35,0004.90
2022-03-08 09:09:00,,0824.1,5.00,0.00,22.0,21.2,00.0,31.2,23.7,07.5,0001.3,0005.07,0008.22,0004.82
2022-03-08 09:10:00,,0824.1,5.01,0.00,22.1,21.8,00.0,31.2,23.8,07.4,0001.7,0005.02,0008.11,0004.78
2022-03-08 09:11:00,,0824.1,5.00,0.00,22.2,22.6,00.0,31.2,24.1,07.3,0001.6,0004.96,0008.02,0004.72
2022-03-08 09:12:00,,0824.1,5.01,0.00,22.3,23.1,00.0,31.2,24.3,07.2,0000.0,0004.85,0007.80,0004.64
2022-03-08 09:13:00,,0824.2,5.00,0.00,22.4,22.8,00.0,31.2,24.3,07.2,0000.0,0004.74,0007.98,0004.54
2022-03-08 09:14:00,,0824.1,5.01,0.00,22.4,22.6,00.0,31.3,24.3,07.3,0000.0,0004.68,0008.02,0004.47
2022-03-08 09:15:00,,0824.1,4.99,0.00,22.4,22.2,00.0,31.3,24.2,07.4,0000.2,0004.65,0008.01,0004.44
2022-03-08 09:16:00,,0824.1,5.00,0.00,22.3,21.9,00.0,31.3,24.1,07.5,0001.7,0004.66,0008.07,0004.46
2022-03-08 09:17:00,,0824.1,5.01,0.00,22.3,21.6,00.0,31.2,24.0,07.6,0001.2,0004.74,0008.22,0004.52
2022-03-08 09:18:00,,0824.1,4.99,0.00,22.2,21.5,00.0,31.2,23.9,07.8,0000.1,0004.84,0008.24,0004.62
2022-03-08 09:19:00,,0824.0,5.00,0.00,22.2,21.5,00.0,31.2,23.9,07.7,0002.3,0004.86,0008.27,0004.66
2022-03-08 09:20:00,,0824.1,5.01,0.00,22.2,21.4,00.0,31.2,23.9,07.6,0001.2,0004.86,0008.59,0004.67
2022-03-08 09:21:00,,0824.1,4.98,0.00,22.2,21.4,00.0,31.2,23.9,07.4,0000.0,0004.82,0008.49,0004.63
2022-03-08 09:22:00,,0824.1,5.00,0.00,22.2,21.4,00.0,31.2,23.9,07.1,0000.0,0004.75,0008.34,0004.56
2022-03-08 09:23:00,,0824.1,5.01,0.00,22.1,21.4,00.0,31.2,23.9,07.0,0001.2,0004.69,0007.96,0004.48
2022-03-08 09:24:00,,0824.1,5.01,0.00,22.1,21.3,00.0,31.2,23.8,07.0,0000.5,0004.61,0007.54,0004.41
2022-03-08 09:25:00,,0824.1,5.00,0.00,22.1,21.3,00.0,31.2,23.8,07.0,0000.0,0004.54,0007.38,0004.33
2022-03-08 09:26:00,,0824.1,5.00,0.00,22.1,21.3,00.0,31.2,23.7,07.5,0000.0,0004.59,0007.43,0004.37
2022-03-08 09:27:00,,0824.1,4.99,0.00,22.1,21.4,00.0,31.2,23.7,07.9,0000.0,0004.67,0007.47,0004.46
2022-03-08 09:28:00,,0824.1,5.01,0.00,22.2,22.1,00.0,31.2,24.0,08.0,0000.0,0004.70,0007.35,0004.51
2022-03-08 09:29:00,,0824.1,4.99,0.00,22.3,22.9,00.0,31.2,24.2,08.1,0000.0,0004.73,0007.40,0004.54
2022-03-08 09:30:00,,0824.1,5.00,0.00,22.4,23.0,00.0,31.3,24.4,08.0,0000.0,0004.81,0007.57,0004.59
2022-03-08 09:31:00,,0824.1,5.00,0.00,22.5,22.8,00.0,31.3,24.4,08.0,0000.0,0004.90,0007.45,0004.67
2022-03-08 09:32:00,,0824.1,5.01,0.00,22.5,22.5,00.0,31.3,24.4,08.0,0000.0,0005.05,0007.64,0004.79
2022-03-08 09:33:00,,0824.0,5.00,0.00,22.4,22.3,00.0,31.3,24.3,07.9,0000.0,0005.24,0007.95,0004.96
2022-03-08 09:34:00,,0824.0,5.00,0.00,22.4,22.2,00.0,31.3,24.2,07.6,0000.0,0005.31,0008.24,0005.03
2022-03-08 09:35:00,,0824.1,4.99,0.00,22.4,22.0,00.0,31.3,24.2,07.5,0000.0,0005.34,0008.27,0005.08
2022-03-08 09:36:00,,0824.1,5.00,0.00,22.4,21.8,00.0,31.3,24.1,07.2,0000.0,0005.33,0008.23,0005.09
2022-03-08 09:37:00,,0824.1,5.00,0.00,22.3,21.7,00.0,31.3,24.0,07.1,0000.0,0005.13,0008.00,0004.92
2022-03-08 09:38:00,,0824.1,5.00,0.00,22.3,21.5,00.0,31.3,24.0,07.1,0000.0,0004.91,0007.77,0004.69
2022-03-08 09:39:00,,0824.1,5.01,0.00,22.2,21.4,00.0,31.3,23.9,07.2,0000.0,0004.71,0007.71,0004.48
2022-03-08 09:40:00,,0824.0,5.00,0.00,22.2,21.2,00.0,31.2,23.8,07.6,0000.0,0004.61,0007.65,0004.37
2022-03-08 09:41:00,,0824.0,4.99,0.00,22.1,20.9,00.0,31.2,23.7,07.9,0000.0,0004.52,0007.44,0004.31
2022-03-08 09:42:00,,0824.0,5.00,0.00,22.0,20.8,00.0,31.2,23.6,07.9,0000.0,0004.41,0007.11,0004.21
2022-03-08 09:43:00,,0824.0,5.01,0.00,22.0,21.0,00.0,31.2,23.6,07.6,0000.0,0004.21,0006.67,0004.03
2022-03-08 09:44:00,,0824.0,4.99,0.00,22.1,21.9,00.0,31.2,23.8,07.4,0000.0,0004.02,0006.08,0003.87
2022-03-08 09:45:00,,0824.0,5.01,0.00,22.2,22.8,00.0,31.2,24.1,07.0,0000.0,0003.92,0005.44,0003.77
2022-03-08 09:46:00,,0824.0,4.99,0.00,22.3,22.9,00.0,31.2,24.3,07.0,0000.0,0003.88,0005.60,0003.72
2022-03-08 09:47:00,,0824.0,4.99,0.00,22.4,22.6,00.0,31.3,24.3,06.9,0000.0,0003.87,0005.65,0003.69
2022-03-08 09:48:00,,0824.0,5.01,0.00,22.3,22.3,00.0,31.3,24.2,06.8,0000.0,0003.90,0005.74,0003.70
2022-03-08 09:49:00,,0824.0,5.00,0.00,22.3,22.0,00.0,31.3,24.1,06.8,0000.0,0003.90,0005.84,0003.70
2022-03-08 09:50:00,,0824.0,4.99,0.00,22.3,21.9,00.0,31.3,24.1,06.8,0000.0,0003.91,0005.70,0003.71
2022-03-08 09:51:00,,0824.0,5.00,0.00,22.3,21.8,00.0,31.2,24.0,06.9,0000.0,0003.86,0005.53,0003.63
2022-03-08 09:52:00,,0823.9,5.00,0.00,22.3,21.7,00.0,31.2,24.0,06.9,0000.0,0003.73,0005.28,0003.51
2022-03-08 09:53:00,,0824.0,5.01,0.00,22.2,21.6,00.0,31.2,24.0,06.8,0000.0,0003.63,0005.24,0003.39
2022-03-08 09:54:00,,0823.9,4.99,0.00,22.2,21.6,00.0,31.2,24.0,06.9,0000.0,0003.63,0005.28,0003.39
2022-03-08 09:55:00,,0823.9,5.01,0.00,22.2,21.5,00.0,31.2,23.9,07.0,0000.0,0003.64,0005.28,0003.40
2022-03-08 09:56:00,,0823.9,4.99,0.00,22.2,21.4,00.0,31.2,23.9,07.0,0000.0,0003.70,0005.51,0003.44
2022-03-08 09:57:00,,0823.9,5.00,0.00,22.2,21.4,00.0,31.2,23.9,07.0,0000.0,0003.72,0005.44,0003.46
2022-03-08 09:58:00,,0823.9,5.00,0.00,22.1,21.4,00.0,31.2,23.9,06.8,0000.0,0003.73,0005.45,0003.46
2022-03-08 09:59:00,,0823.9,4.99,0.00,22.1,21.4,00.0,31.2,23.8,06.8,0000.0,0003.74,0005.50,0003.47
